Location: Miramichi City (Newcastle)
(46.9830°N, 65.5670°W)
Time: 01:43:10
(UTC-03:00)

Iridium 12 - Visible Passes

Search period start: 03 September 2014 00:00
Search period end: 13 September 2014 00:00
Orbit: 776 x 779 km, 86.4° (Epoch: 02 September)

Date Brightness Start Highest point End Pass type
(mag) Time Alt. Az. Time Alt. Az. Time Alt. Az.
03 Sep 8.9 04:40:52 10° E 04:41:44 10° ENE 04:42:36 10° ENE visible
04 Sep 6.9 05:43:10 10° SSE 05:48:04 44° E 05:52:59 10° NNE visible
05 Sep 7.8 05:10:33 10° SE 05:14:45 26° E 05:18:59 10° NNE visible
06 Sep 8.4 04:38:43 10° ESE 04:41:34 15° ENE 04:44:25 10° NE visible
06 Sep 5.5 06:16:23 10° S 06:21:35 77° W 06:26:50 10° N visible
07 Sep 6.1 05:42:58 10° SSE 05:48:05 61° E 05:53:14 10° N visible
08 Sep 7.2 05:10:02 10° SSE 05:14:42 35° E 05:19:24 10° NNE visible
09 Sep 8.0 04:37:40 10° SE 04:41:27 21° ENE 04:45:14 10° NNE visible
09 Sep 5.7 06:16:38 10° SSW 06:21:44 55° W 06:26:52 10° N visible
10 Sep 8.5 04:06:28 10° E 04:08:18 12° ENE 04:10:09 10° NE visible
10 Sep 5.6 05:42:57 10° S 05:48:09 86° E 05:53:24 10° N visible
11 Sep 6.5 05:09:43 10° SSE 05:14:42 49° E 05:19:43 10° NNE visible
12 Sep 7.5 04:36:58 10° SE 04:41:22 28° E 04:45:46 10° NNE visible
12 Sep 6.0 06:17:03 10° SSW 06:21:55 39° W 06:26:49 10° N visible
